owner,sensor,date,latitude,longitude,vertical_datum,direction_of_sea_water_velocity,sea_water_speed,upward_sea_water_velocity,qcFlag 
TABS,ioos:station:wmo:42050:1,1996-06-01T00:00:00Z,28.8425,-94.2433,2.0,292.9137964,27.17420284,-99999.0,'11111222,11111222,99999999' 
TABS,ioos:station:wmo:42050:1,1996-06-01T00:30:00Z,28.8425,-94.2433,2.0,320.2690795,42.42889699,-99999.0,'11111222,11111222,99999999' 
TABS,ioos:station:wmo:42050:1,1996-06-01T01:00:00Z,28.8425,-94.2433,2.0,328.6230237,42.06112338,-99999.0,'11111222,11111222,99999999' 
TABS,ioos:station:wmo:42050:1,1996-06-01T01:30:00Z,28.8425,-94.2433,2.0,333.9944614,40.77887811,-99999.0,'11111222,11111222,99999999' 
TABS,ioos:station:wmo:42050:1,1996-06-01T02:00:00Z,28.8425,-94.2433,2.0,337.1759221,38.79793938,-99999.0,'11111222,11111222,99999999' 
TABS,ioos:station:wmo:42050:1,1996-06-01T02:30:00Z,28.8425,-94.2433,2.0,339.0417498,37.49037476,-99999.0,'11111222,11111222,99999999' 
TABS,ioos:station:wmo:42050:1,1996-06-01T03:00:00Z,28.8425,-94.2433,2.0,337.9392877,37.30100535,-99999.0,'11111222,11111222,99999999' 
TABS,ioos:station:wmo:42050:1,1996-06-01T03:30:00Z,28.8425,-94.2433,2.0,337.7649112,37.02314141,-99999.0,'11111222,11111222,99999999' 
TABS,ioos:station:wmo:42050:1,1996-06-01T04:00:00Z,28.8425,-94.2433,2.0,336.0060339,38.48568695,-99999.0,'11111222,11111222,99999999' 
TABS,ioos:station:wmo:42050:1,1996-06-01T04:30:00Z,28.8425,-94.2433,2.0,336.9120703,39.52593579,-99999.0,'11111222,11111222,99999999' 
TABS,ioos:station:wmo:42050:1,1996-06-01T05:00:00Z,28.8425,-94.2433,2.0,336.5394753,39.30961842,-99999.0,'11111222,11111222,99999999' 
TABS,ioos:station:wmo:42050:1,1996-06-01T05:30:00Z,28.8425,-94.2433,2.0,336.078033,43.35427661,-99999.0,'11111222,11111222,99999999' 
TABS,ioos:station:wmo:42050:1,1996-06-01T06:00:00Z,28.8425,-94.2433,2.0,337.717917,45.57309842,-99999.0,'11111222,11111222,99999999' 
TABS,ioos:station:wmo:42050:1,1996-06-01T06:30:00Z,28.8425,-94.2433,2.0,340.0241673,41.8583994,-99999.0,'11111222,11111222,99999999' 
TABS,ioos:station:wmo:42050:1,1996-06-01T07:00:00Z,28.8425,-94.2433,2.0,340.3709859,40.81173483,-99999.0,'11111222,11111222,99999999' 
TABS,ioos:station:wmo:42050:1,1996-06-01T07:30:00Z,28.8425,-94.2433,2.0,340.7186757,41.51891376,-99999.0,'11111222,11111222,99999999' 
TABS,ioos:station:wmo:42050:1,1996-06-01T08:00:00Z,28.8425,-94.2433,2.0,344.180791,34.99543542,-99999.0,'11111222,11111222,99999999' 
TABS,ioos:station:wmo:42050:1,1996-06-01T08:30:00Z,28.8425,-94.2433,2.0,337.9811666,36.16814206,-99999.0,'11111222,11111222,99999999' 
TABS,ioos:station:wmo:42050:1,1996-06-01T09:00:00Z,28.8425,-94.2433,2.0,344.3228792,31.41882557,-99999.0,'11111222,11111222,99999999' 
TABS,ioos:station:wmo:42050:1,1996-06-01T09:30:00Z,28.8425,-94.2433,2.0,353.1625074,22.51010662,-99999.0,'11111222,11111222,99999999' 
TABS,ioos:station:wmo:42050:1,1996-06-01T10:00:00Z,28.8425,-94.2433,2.0,358.6746704,25.93694084,-99999.0,'11111222,11111222,99999999' 
TABS,ioos:station:wmo:42050:1,1996-06-01T10:30:00Z,28.8425,-94.2433,2.0,1.51739786,16.99595834,-99999.0,'11111222,11111222,99999999' 
TABS,ioos:station:wmo:42050:1,1996-06-01T11:00:00Z,28.8425,-94.2433,2.0,0.000210459,12.07,-99999.0,'11111222,11111222,99999999' 
TABS,ioos:station:wmo:42050:1,1996-06-01T11:30:00Z,28.8425,-94.2433,2.0,349.403799,12.1268009,-99999.0,'11111222,11111222,99999999' 
TABS,ioos:station:wmo:42050:1,1996-06-01T12:00:00Z,28.8425,-94.2433,2.0,6.926933977,11.11109806,-99999.0,'11111222,11111222,99999999' 
TABS,ioos:station:wmo:42050:1,1996-06-01T12:30:00Z,28.8425,-94.2433,2.0,351.0146097,11.46065007,-99999.0,'11111222,11111222,99999999' 
TABS,ioos:station:wmo:42050:1,1996-06-01T13:00:00Z,28.8425,-94.2433,2.0,357.1892611,12.23472108,-99999.0,'11111222,11111222,99999999' 
TABS,ioos:station:wmo:42050:1,1996-06-01T13:30:00Z,28.8425,-94.2433,2.0,354.2234185,10.33247308,-99999.0,'11111222,11111222,99999999' 
TABS,ioos:station:wmo:42050:1,1996-06-01T14:00:00Z,28.8425,-94.2433,2.0,349.2718709,11.97939064,-99999.0,'11111222,11111222,99999999' 
TABS,ioos:station:wmo:42050:1,1996-06-01T14:30:00Z,28.8425,-94.2433,2.0,353.7674867,16.48745584,-99999.0,'11111222,11111222,99999999' 
TABS,ioos:station:wmo:42050:1,1996-06-01T15:00:00Z,28.8425,-94.2433,2.0,358.4695153,16.8460114,-99999.0,'11111222,11111222,99999999' 
TABS,ioos:station:wmo:42050:1,1996-06-01T15:30:00Z,28.8425,-94.2433,2.0,4.114229469,18.67812892,-99999.0,'11111222,11111222,99999999' 
TABS,ioos:station:wmo:42050:1,1996-06-01T16:00:00Z,28.8425,-94.2433,2.0,3.080258502,16.56392767,-99999.0,'11111222,11111222,99999999' 
TABS,ioos:station:wmo:42050:1,1996-06-01T16:30:00Z,28.8425,-94.2433,2.0,356.0471942,15.08589076,-99999.0,'11111222,11111222,99999999' 
TABS,ioos:station:wmo:42050:1,1996-06-01T17:00:00Z,28.8425,-94.2433,2.0,359.4348113,15.20074011,-99999.0,'11111222,11144222,99999999' 
TABS,ioos:station:wmo:42050:1,1996-06-01T17:30:00Z,28.8425,-94.2433,2.0,356.6146528,17.61073536,-99999.0,'11111222,11111222,99999999' 
TABS,ioos:station:wmo:42050:1,1996-06-01T18:00:00Z,28.8425,-94.2433,2.0,1.491947406,17.28585838,-99999.0,'11111222,11111222,99999999' 
TABS,ioos:station:wmo:42050:1,1996-06-01T18:30:00Z,28.8425,-94.2433,2.0,359.3733685,13.71082054,-99999.0,'11111222,11144222,99999999' 
TABS,ioos:station:wmo:42050:1,1996-06-01T19:00:00Z,28.8425,-94.2433,2.0,4.33818054,13.74938908,-99999.0,'11111222,11111222,99999999' 
TABS,ioos:station:wmo:42050:1,1996-06-01T19:30:00Z,28.8425,-94.2433,2.0,349.2754909,14.40155894,-99999.0,'11111222,11111222,99999999' 
TABS,ioos:station:wmo:42050:1,1996-06-01T20:00:00Z,28.8425,-94.2433,2.0,344.2696558,10.99166957,-99999.0,'11111222,11111222,99999999' 
TABS,ioos:station:wmo:42050:1,1996-06-01T20:30:00Z,28.8425,-94.2433,2.0,345.5562085,9.541593158,-99999.0,'11133222,11111222,99999999' 
TABS,ioos:station:wmo:42050:1,1996-06-01T21:00:00Z,28.8425,-94.2433,2.0,345.7775099,9.686924176,-99999.0,'11133222,11111222,99999999' 
TABS,ioos:station:wmo:42050:1,1996-06-01T21:30:00Z,28.8425,-94.2433,2.0,349.0195861,5.45996337,-99999.0,'11133222,11111222,99999999' 
TABS,ioos:station:wmo:42050:1,1996-06-01T22:00:00Z,28.8425,-94.2433,2.0,355.8951215,2.095375861,-99999.0,'11133222,11111222,99999999' 
TABS,ioos:station:wmo:42050:1,1996-06-01T22:30:00Z,28.8425,-94.2433,2.0,315.0003157,0.212132034,-99999.0,'11133222,11111222,99999999' 
TABS,ioos:station:wmo:42050:1,1996-06-01T23:00:00Z,28.8425,-94.2433,2.0,260.4329155,0.902551938,-99999.0,'11133222,11111222,99999999' 
TABS,ioos:station:wmo:42050:1,1996-06-01T23:30:00Z,28.8425,-94.2433,2.0,243.2423235,1.332704018,-99999.0,'11133222,11111222,99999999' 
TABS,ioos:station:wmo:42050:1,1996-06-02T00:00:00Z,28.8425,-94.2433,2.0,154.5915746,23.25984738,-99999.0,'11111222,11111222,99999999' 
TABS,ioos:station:wmo:42050:1,1996-06-02T00:30:00Z,28.8425,-94.2433,2.0,168.6811839,25.83241762,-99999.0,'11111222,11111222,99999999' 
TABS,ioos:station:wmo:42050:1,1996-06-02T01:00:00Z,28.8425,-94.2433,2.0,171.1885483,32.11905976,-99999.0,'11111222,11111222,99999999' 
TABS,ioos:station:wmo:42050:1,1996-06-02T01:30:00Z,28.8425,-94.2433,2.0,176.3743333,40.01007123,-99999.0,'11111222,11111222,99999999' 
TABS,ioos:station:wmo:42050:1,1996-06-02T02:00:00Z,28.8425,-94.2433,2.0,190.7785884,34.2747283,-99999.0,'11111222,11111222,99999999' 
TABS,ioos:station:wmo:42050:1,1996-06-02T02:30:00Z,28.8425,-94.2433,2.0,196.8871995,29.74258227,-99999.0,'11111222,11111222,99999999' 
TABS,ioos:station:wmo:42050:1,1996-06-02T03:00:00Z,28.8425,-94.2433,2.0,208.3550603,21.32908343,-99999.0,'11111222,11111222,99999999' 
TABS,ioos:station:wmo:42050:1,1996-06-02T03:30:00Z,28.8425,-94.2433,2.0,220.1362429,16.18029048,-99999.0,'11111222,11111222,99999999' 
TABS,ioos:station:wmo:42050:1,1996-06-02T04:00:00Z,28.8425,-94.2433,2.0,251.3051252,11.1692793,-99999.0,'11111222,11111222,99999999' 
TABS,ioos:station:wmo:42050:1,1996-06-02T04:30:00Z,28.8425,-94.2433,2.0,269.1127204,9.691160921,-99999.0,'11133222,11111222,99999999' 
TABS,ioos:station:wmo:42050:1,1996-06-02T05:00:00Z,28.8425,-94.2433,2.0,284.2053249,11.53261896,-99999.0,'11111222,11111222,99999999' 
TABS,ioos:station:wmo:42050:1,1996-06-02T05:30:00Z,28.8425,-94.2433,2.0,298.0661889,15.19705893,-99999.0,'11111222,11111222,99999999' 
TABS,ioos:station:wmo:42050:1,1996-06-02T06:00:00Z,28.8425,-94.2433,2.0,304.8748754,17.97890152,-99999.0,'11111222,11111222,99999999' 
TABS,ioos:station:wmo:42050:1,1996-06-02T06:30:00Z,28.8425,-94.2433,2.0,306.7619103,16.92603025,-99999.0,'11111222,11111222,99999999' 
TABS,ioos:station:wmo:42050:1,1996-06-02T07:00:00Z,28.8425,-94.2433,2.0,315.4213932,14.43243916,-99999.0,'11111222,11111222,99999999' 
TABS,ioos:station:wmo:42050:1,1996-06-02T07:30:00Z,28.8425,-94.2433,2.0,328.2321732,16.12588602,-99999.0,'11111222,11111222,99999999' 
TABS,ioos:station:wmo:42050:1,1996-06-02T08:00:00Z,28.8425,-94.2433,2.0,329.2147789,15.43494736,-99999.0,'11111222,11111222,99999999' 
TABS,ioos:station:wmo:42050:1,1996-06-02T08:30:00Z,28.8425,-94.2433,2.0,338.5690933,12.64425957,-99999.0,'11111222,11111222,99999999' 
TABS,ioos:station:wmo:42050:1,1996-06-02T09:00:00Z,28.8425,-94.2433,2.0,340.5076591,10.27915366,-99999.0,'11111222,11111222,99999999' 
TABS,ioos:station:wmo:42050:1,1996-06-02T09:30:00Z,28.8425,-94.2433,2.0,331.3775803,7.473285757,-99999.0,'11133222,11111222,99999999' 
TABS,ioos:station:wmo:42050:1,1996-06-02T10:00:00Z,28.8425,-94.2433,2.0,330.981991,4.59709691,-99999.0,'11133222,11111222,99999999' 
TABS,ioos:station:wmo:42050:1,1996-06-02T10:30:00Z,28.8425,-94.2433,2.0,294.5757906,1.803357979,-99999.0,'11133222,11111222,99999999' 
TABS,ioos:station:wmo:42050:1,1996-06-02T11:00:00Z,28.8425,-94.2433,2.0,288.4353266,0.474341649,-99999.0,'11133222,11111222,99999999' 
TABS,ioos:station:wmo:42050:1,1996-06-02T11:30:00Z,28.8425,-94.2433,2.0,251.5646734,0.474341649,-99999.0,'11133222,11111222,99999999' 
TABS,ioos:station:wmo:42050:1,1996-06-02T12:00:00Z,28.8425,-94.2433,2.0,184.4210686,1.945790328,-99999.0,'11133222,11111222,99999999' 
TABS,ioos:station:wmo:42050:1,1996-06-02T12:30:00Z,28.8425,-94.2433,2.0,110.7141264,1.272242115,-99999.0,'11133222,11111222,99999999' 
TABS,ioos:station:wmo:42050:1,1996-06-02T13:00:00Z,28.8425,-94.2433,2.0,153.1778711,0.997296345,-99999.0,'11133222,11111222,99999999' 
TABS,ioos:station:wmo:42050:1,1996-06-02T13:30:00Z,28.8425,-94.2433,2.0,90.0,2.23,-99999.0,'11133222,11111222,99999999' 
TABS,ioos:station:wmo:42050:1,1996-06-02T14:00:00Z,28.8425,-94.2433,2.0,62.09239006,2.862953021,-99999.0,'11133222,11111222,99999999' 
TABS,ioos:station:wmo:42050:1,1996-06-02T14:30:00Z,28.8425,-94.2433,2.0,47.88168222,4.219691932,-99999.0,'11133222,11111222,99999999' 
TABS,ioos:station:wmo:42050:1,1996-06-02T15:00:00Z,28.8425,-94.2433,2.0,45.91529329,6.640579794,-99999.0,'11133222,11111222,99999999' 
TABS,ioos:station:wmo:42050:1,1996-06-02T15:30:00Z,28.8425,-94.2433,2.0,35.66819163,7.151573253,-99999.0,'11133222,11111222,99999999' 
TABS,ioos:station:wmo:42050:1,1996-06-02T16:00:00Z,28.8425,-94.2433,2.0,39.56627002,8.885837046,-99999.0,'11133222,11111222,99999999' 
TABS,ioos:station:wmo:42050:1,1996-06-02T16:30:00Z,28.8425,-94.2433,2.0,30.28047993,10.35239103,-99999.0,'11111222,11111222,99999999' 
TABS,ioos:station:wmo:42050:1,1996-06-02T17:00:00Z,28.8425,-94.2433,2.0,26.22717603,12.12864378,-99999.0,'11111222,11111222,99999999' 
TABS,ioos:station:wmo:42050:1,1996-06-02T17:30:00Z,28.8425,-94.2433,2.0,26.56519952,12.99155495,-99999.0,'11111222,11111222,99999999' 
TABS,ioos:station:wmo:42050:1,1996-06-02T18:00:00Z,28.8425,-94.2433,2.0,33.20549467,14.42549479,-99999.0,'11111222,11111222,99999999' 
TABS,ioos:station:wmo:42050:1,1996-06-02T18:30:00Z,28.8425,-94.2433,2.0,48.53355967,17.09498464,-99999.0,'11111222,11111222,99999999' 
TABS,ioos:station:wmo:42050:1,1996-06-02T19:00:00Z,28.8425,-94.2433,2.0,60.90375503,22.68244475,-99999.0,'11111222,11111222,99999999' 
TABS,ioos:station:wmo:42050:1,1996-06-02T19:30:00Z,28.8425,-94.2433,2.0,73.26817677,26.91971211,-99999.0,'11111222,11111222,99999999' 
TABS,ioos:station:wmo:42050:1,1996-06-02T20:00:00Z,28.8425,-94.2433,2.0,102.1142592,18.44065617,-99999.0,'11111222,11111222,99999999' 
TABS,ioos:station:wmo:42050:1,1996-06-02T20:30:00Z,28.8425,-94.2433,2.0,97.44643051,22.99392094,-99999.0,'11111222,11111222,99999999' 
TABS,ioos:station:wmo:42050:1,1996-06-02T21:00:00Z,28.8425,-94.2433,2.0,102.5367605,23.35690262,-99999.0,'11111222,11111222,99999999' 
TABS,ioos:station:wmo:42050:1,1996-06-02T21:30:00Z,28.8425,-94.2433,2.0,124.6767389,21.74192494,-99999.0,'11111222,11111222,99999999' 
TABS,ioos:station:wmo:42050:1,1996-06-02T22:00:00Z,28.8425,-94.2433,2.0,138.858915,20.38260533,-99999.0,'11111222,11111222,99999999' 
TABS,ioos:station:wmo:42050:1,1996-06-02T22:30:00Z,28.8425,-94.2433,2.0,186.167539,31.92479444,-99999.0,'11111222,11111222,99999999' 
TABS,ioos:station:wmo:42050:1,1996-06-02T23:00:00Z,28.8425,-94.2433,2.0,188.3804407,43.97963392,-99999.0,'11111222,11111222,99999999' 
TABS,ioos:station:wmo:42050:1,1996-06-02T23:30:00Z,28.8425,-94.2433,2.0,190.0865296,46.76278114,-99999.0,'11111222,11111222,99999999' 
TABS,ioos:station:wmo:42050:1,1996-06-03T00:00:00Z,28.8425,-94.2433,2.0,195.6685009,45.80204035,-99999.0,'11111222,11111222,99999999' 
TABS,ioos:station:wmo:42050:1,1996-06-03T00:30:00Z,28.8425,-94.2433,2.0,203.1120621,40.9899756,-99999.0,'11111222,11111222,99999999' 
TABS,ioos:station:wmo:42050:1,1996-06-03T01:00:00Z,28.8425,-94.2433,2.0,204.6463222,33.93122603,-99999.0,'11111222,11111222,99999999' 
TABS,ioos:station:wmo:42050:1,1996-06-03T01:30:00Z,28.8425,-94.2433,2.0,211.5136788,32.50391053,-99999.0,'11111222,11111222,99999999' 
TABS,ioos:station:wmo:42050:1,1996-06-03T02:00:00Z,28.8425,-94.2433,2.0,215.0268302,26.74383106,-99999.0,'11111222,11111222,99999999' 
TABS,ioos:station:wmo:42050:1,1996-06-03T02:30:00Z,28.8425,-94.2433,2.0,217.6829962,20.71008691,-99999.0,'11111222,11111222,99999999' 
TABS,ioos:station:wmo:42050:1,1996-06-03T03:00:00Z,28.8425,-94.2433,2.0,224.2695329,16.64664531,-99999.0,'11111222,11111222,99999999' 
TABS,ioos:station:wmo:42050:1,1996-06-03T03:30:00Z,28.8425,-94.2433,2.0,255.6983139,31.98108973,-99999.0,'11111222,11111222,99999999' 
TABS,ioos:station:wmo:42050:1,1996-06-03T04:00:00Z,28.8425,-94.2433,2.0,270.8083331,73.75733252,-99999.0,'11111222,11111222,99999999' 
TABS,ioos:station:wmo:42050:1,1996-06-03T04:30:00Z,28.8425,-94.2433,2.0,274.1488354,74.09412662,-99999.0,'11111222,11111222,99999999' 
TABS,ioos:station:wmo:42050:1,1996-06-03T05:00:00Z,28.8425,-94.2433,2.0,282.5677422,77.39429695,-99999.0,'11111222,11111222,99999999' 
TABS,ioos:station:wmo:42050:1,1996-06-03T05:30:00Z,28.8425,-94.2433,2.0,286.4251665,77.98232171,-99999.0,'11111222,11111222,99999999' 
TABS,ioos:station:wmo:42050:1,1996-06-03T06:00:00Z,28.8425,-94.2433,2.0,290.8490462,74.93657185,-99999.0,'11111222,11111222,99999999' 
TABS,ioos:station:wmo:42050:1,1996-06-03T06:30:00Z,28.8425,-94.2433,2.0,295.7325325,59.37835043,-99999.0,'11111222,11111222,99999999' 
TABS,ioos:station:wmo:42050:1,1996-06-03T07:00:00Z,28.8425,-94.2433,2.0,297.7980248,55.92358447,-99999.0,'11111222,11111222,99999999' 
TABS,ioos:station:wmo:42050:1,1996-06-03T07:30:00Z,28.8425,-94.2433,2.0,297.871727,58.65389075,-99999.0,'11111222,11111222,99999999' 
TABS,ioos:station:wmo:42050:1,1996-06-03T08:00:00Z,28.8425,-94.2433,2.0,308.3157726,54.30728312,-99999.0,'11111222,11111222,99999999' 
TABS,ioos:station:wmo:42050:1,1996-06-03T08:30:00Z,28.8425,-94.2433,2.0,311.635757,50.24168488,-99999.0,'11111222,11111222,99999999' 
TABS,ioos:station:wmo:42050:1,1996-06-03T09:00:00Z,28.8425,-94.2433,2.0,318.1189882,42.63096527,-99999.0,'11111222,11111222,99999999' 
TABS,ioos:station:wmo:42050:1,1996-06-03T09:30:00Z,28.8425,-94.2433,2.0,322.9267487,42.76427013,-99999.0,'11111222,11111222,99999999' 
TABS,ioos:station:wmo:42050:1,1996-06-03T10:00:00Z,28.8425,-94.2433,2.0,322.3060581,41.42628755,-99999.0,'11111222,11111222,99999999' 
TABS,ioos:station:wmo:42050:1,1996-06-03T10:30:00Z,28.8425,-94.2433,2.0,330.6306997,42.22729094,-99999.0,'11111222,11111222,99999999' 
TABS,ioos:station:wmo:42050:1,1996-06-03T11:00:00Z,28.8425,-94.2433,2.0,334.0971824,34.45116253,-99999.0,'11111222,11111222,99999999' 
TABS,ioos:station:wmo:42050:1,1996-06-03T11:30:00Z,28.8425,-94.2433,2.0,338.0872559,29.55532609,-99999.0,'11111222,11111222,99999999' 
TABS,ioos:station:wmo:42050:1,1996-06-03T12:00:00Z,28.8425,-94.2433,2.0,341.5579089,24.49816524,-99999.0,'11111222,11111222,99999999' 
TABS,ioos:station:wmo:42050:1,1996-06-03T12:30:00Z,28.8425,-94.2433,2.0,344.8513601,22.23258195,-99999.0,'11111222,11111222,99999999' 
TABS,ioos:station:wmo:42050:1,1996-06-03T13:00:00Z,28.8425,-94.2433,2.0,353.8888668,19.63156896,-99999.0,'11111222,11111222,99999999' 
TABS,ioos:station:wmo:42050:1,1996-06-03T13:30:00Z,28.8425,-94.2433,2.0,1.291080656,19.97506946,-99999.0,'11111222,11111222,99999999' 
TABS,ioos:station:wmo:42050:1,1996-06-03T14:00:00Z,28.8425,-94.2433,2.0,12.91287355,22.01676634,-99999.0,'11111222,11111222,99999999' 
TABS,ioos:station:wmo:42050:1,1996-06-03T14:30:00Z,28.8425,-94.2433,2.0,14.15037127,19.51202962,-99999.0,'11111222,11111222,99999999' 
TABS,ioos:station:wmo:42050:1,1996-06-03T15:00:00Z,28.8425,-94.2433,2.0,19.72297786,18.99427545,-99999.0,'11111222,11111222,99999999' 
TABS,ioos:station:wmo:42050:1,1996-06-03T15:30:00Z,28.8425,-94.2433,2.0,18.43511617,18.37283321,-99999.0,'11111222,11111222,99999999' 
TABS,ioos:station:wmo:42050:1,1996-06-03T16:00:00Z,28.8425,-94.2433,2.0,24.67765173,22.13119292,-99999.0,'11111222,11111222,99999999' 
TABS,ioos:station:wmo:42050:1,1996-06-03T16:30:00Z,28.8425,-94.2433,2.0,89.65035638,24.58045768,-99999.0,'11111222,11111222,99999999' 
TABS,ioos:station:wmo:42050:1,1996-06-03T17:00:00Z,28.8425,-94.2433,2.0,98.67996021,19.74615912,-99999.0,'11111222,11111222,99999999' 
TABS,ioos:station:wmo:42050:1,1996-06-03T17:30:00Z,28.8425,-94.2433,2.0,104.258458,18.75784636,-99999.0,'11111222,11111222,99999999' 
TABS,ioos:station:wmo:42050:1,1996-06-03T18:00:00Z,28.8425,-94.2433,2.0,103.9080506,17.34861666,-99999.0,'11111222,11111222,99999999' 
TABS,ioos:station:wmo:42050:1,1996-06-03T18:30:00Z,28.8425,-94.2433,2.0,98.61969574,16.88066942,-99999.0,'11111222,11111222,99999999' 
TABS,ioos:station:wmo:42050:1,1996-06-03T19:00:00Z,28.8425,-94.2433,2.0,99.18304321,15.85318265,-99999.0,'11111222,11111222,99999999' 
TABS,ioos:station:wmo:42050:1,1996-06-03T19:30:00Z,28.8425,-94.2433,2.0,131.4659347,11.93036462,-99999.0,'11111222,11111222,99999999' 
TABS,ioos:station:wmo:42050:1,1996-06-03T20:00:00Z,28.8425,-94.2433,2.0,132.1657904,12.87094402,-99999.0,'11111222,11111222,99999999' 
TABS,ioos:station:wmo:42050:1,1996-06-03T20:30:00Z,28.8425,-94.2433,2.0,165.4359016,11.85079322,-99999.0,'11111222,11111222,99999999' 
TABS,ioos:station:wmo:42050:1,1996-06-03T21:00:00Z,28.8425,-94.2433,2.0,200.9701729,11.65175094,-99999.0,'11111222,11111222,99999999' 
TABS,ioos:station:wmo:42050:1,1996-06-03T21:30:00Z,28.8425,-94.2433,2.0,212.2652009,10.04040338,-99999.0,'11111222,11111222,99999999' 
TABS,ioos:station:wmo:42050:1,1996-06-03T22:00:00Z,28.8425,-94.2433,2.0,209.042238,9.20779018,-99999.0,'11133222,11111222,99999999' 
TABS,ioos:station:wmo:42050:1,1996-06-03T22:30:00Z,28.8425,-94.2433,2.0,233.6130117,21.10475065,-99999.0,'11111222,11111222,99999999' 
TABS,ioos:station:wmo:42050:1,1996-06-03T23:00:00Z,28.8425,-94.2433,2.0,236.1997305,21.69713806,-99999.0,'11111222,11111222,99999999' 
TABS,ioos:station:wmo:42050:1,1996-06-03T23:30:00Z,28.8425,-94.2433,2.0,245.7178062,31.88033406,-99999.0,'11111222,11111222,99999999' 
TABS,ioos:station:wmo:42050:1,1996-06-04T00:00:00Z,28.8425,-94.2433,2.0,245.3161087,50.66978587,-99999.0,'11111222,11111222,99999999' 
TABS,ioos:station:wmo:42050:1,1996-06-04T00:30:00Z,28.8425,-94.2433,2.0,247.9492402,49.99708492,-99999.0,'11111222,11111222,99999999' 
TABS,ioos:station:wmo:42050:1,1996-06-04T01:00:00Z,28.8425,-94.2433,2.0,250.8882776,55.98570264,-99999.0,'11111222,11111222,99999999' 
TABS,ioos:station:wmo:42050:1,1996-06-04T01:30:00Z,28.8425,-94.2433,2.0,252.7290714,57.73297585,-99999.0,'11111222,11111222,99999999' 
TABS,ioos:station:wmo:42050:1,1996-06-04T02:00:00Z,28.8425,-94.2433,2.0,258.9817938,56.92933163,-99999.0,'11111222,11111222,99999999' 
TABS,ioos:station:wmo:42050:1,1996-06-04T02:30:00Z,28.8425,-94.2433,2.0,260.9162331,55.67822285,-99999.0,'11111222,11111222,99999999' 
TABS,ioos:station:wmo:42050:1,1996-06-04T03:00:00Z,28.8425,-94.2433,2.0,267.237983,52.51098361,-99999.0,'11111222,11111222,99999999' 
TABS,ioos:station:wmo:42050:1,1996-06-04T03:30:00Z,28.8425,-94.2433,2.0,273.8671616,41.96553109,-99999.0,'11111222,11111222,99999999' 
TABS,ioos:station:wmo:42050:1,1996-06-04T04:00:00Z,28.8425,-94.2433,2.0,277.9384339,38.81189508,-99999.0,'11111222,11111222,99999999' 
TABS,ioos:station:wmo:42050:1,1996-06-04T04:30:00Z,28.8425,-94.2433,2.0,284.7637567,39.75236471,-99999.0,'11111222,11111222,99999999' 
TABS,ioos:station:wmo:42050:1,1996-06-04T05:00:00Z,28.8425,-94.2433,2.0,299.1047864,34.62149766,-99999.0,'11111222,11111222,99999999' 
TABS,ioos:station:wmo:42050:1,1996-06-04T05:30:00Z,28.8425,-94.2433,2.0,310.1841467,33.94075574,-99999.0,'11111222,11111222,99999999' 
TABS,ioos:station:wmo:42050:1,1996-06-04T06:00:00Z,28.8425,-94.2433,2.0,317.3355661,36.2693438,-99999.0,'11111222,11111222,99999999' 
TABS,ioos:station:wmo:42050:1,1996-06-04T06:30:00Z,28.8425,-94.2433,2.0,323.8868521,38.17532711,-99999.0,'11111222,11111222,99999999' 
TABS,ioos:station:wmo:42050:1,1996-06-04T07:00:00Z,28.8425,-94.2433,2.0,322.6554113,40.28938446,-99999.0,'11111222,11111222,99999999' 
TABS,ioos:station:wmo:42050:1,1996-06-04T07:30:00Z,28.8425,-94.2433,2.0,330.1013785,42.44980094,-99999.0,'11111222,11111222,99999999' 
TABS,ioos:station:wmo:42050:1,1996-06-04T08:00:00Z,28.8425,-94.2433,2.0,336.9720581,38.85637142,-99999.0,'11111222,11111222,99999999' 
TABS,ioos:station:wmo:42050:1,1996-06-04T08:30:00Z,28.8425,-94.2433,2.0,343.211336,36.10913735,-99999.0,'11111222,11111222,99999999' 
TABS,ioos:station:wmo:42050:1,1996-06-04T09:00:00Z,28.8425,-94.2433,2.0,347.0612951,33.94180903,-99999.0,'11111222,11111222,99999999' 
TABS,ioos:station:wmo:42050:1,1996-06-04T09:30:00Z,28.8425,-94.2433,2.0,352.2132107,31.88401637,-99999.0,'11111222,11111222,99999999' 
TABS,ioos:station:wmo:42050:1,1996-06-04T10:00:00Z,28.8425,-94.2433,2.0,356.8659496,29.99486789,-99999.0,'11111222,11111222,99999999' 
TABS,ioos:station:wmo:42050:1,1996-06-04T10:30:00Z,28.8425,-94.2433,2.0,3.246985229,28.95647941,-99999.0,'11111222,11111222,99999999' 
TABS,ioos:station:wmo:42050:1,1996-06-04T11:00:00Z,28.8425,-94.2433,2.0,13.70498065,25.15621593,-99999.0,'11111222,11111222,99999999' 
TABS,ioos:station:wmo:42050:1,1996-06-04T11:30:00Z,28.8425,-94.2433,2.0,20.63004216,24.52248152,-99999.0,'11111222,11111222,99999999' 
TABS,ioos:station:wmo:42050:1,1996-06-04T12:00:00Z,28.8425,-94.2433,2.0,37.98393145,19.85575232,-99999.0,'11111222,11111222,99999999' 
TABS,ioos:station:wmo:42050:1,1996-06-04T12:30:00Z,28.8425,-94.2433,2.0,50.09682019,22.52556104,-99999.0,'11111222,11111222,99999999' 
TABS,ioos:station:wmo:42050:1,1996-06-04T13:00:00Z,28.8425,-94.2433,2.0,65.20137213,23.79412533,-99999.0,'11111222,11111222,99999999' 
TABS,ioos:station:wmo:42050:1,1996-06-04T13:30:00Z,28.8425,-94.2433,2.0,76.85581695,25.54937377,-99999.0,'11111222,11111222,99999999' 
TABS,ioos:station:wmo:42050:1,1996-06-04T14:00:00Z,28.8425,-94.2433,2.0,84.29142405,28.4510984,-99999.0,'11111222,11111222,99999999' 
TABS,ioos:station:wmo:42050:1,1996-06-04T14:30:00Z,28.8425,-94.2433,2.0,84.9120104,30.21907345,-99999.0,'11111222,11111222,99999999' 
TABS,ioos:station:wmo:42050:1,1996-06-04T15:00:00Z,28.8425,-94.2433,2.0,84.821962,38.00509703,-99999.0,'11111222,11111222,99999999' 
TABS,ioos:station:wmo:42050:1,1996-06-04T15:30:00Z,28.8425,-94.2433,2.0,85.61632851,40.94979609,-99999.0,'11111222,11111222,99999999' 
TABS,ioos:station:wmo:42050:1,1996-06-04T16:00:00Z,28.8425,-94.2433,2.0,94.86519446,35.13659773,-99999.0,'11111222,11111222,99999999' 